[[{"header":{"parameterUnit":"m.s-1","parameterCategory":1,"la1":30.2991,"la2":30.254,"lo1":-89.0895,"lo2":-89.0444,"dy":0.0017,"dx":0.0017,"nx":28,"ny":28,"refTime":"2024-04-22T21:00:00:Z","depth":0,"parameterNumber":2,"parameterNumberName":"U-component_of_WINDS"},"data":[0,0,0,0,0,0,0,0,0,0,0,0,0,0,0,0,0,0,0,0,0,0,0,0,0,0,0,0,0,0,0,0,0,0,0,0,0,0,0,0,0,0,0,0,0,0,0,0,0,0,0,0,0,0,0,0,0,0,-1.2512,-1.2512,0,-1.256,-1.256,-1.2561,-1.2569,-1.2568,-1.2568,-1.2568,-1.2616,-1.2617,-1.2619,0,0,0,0,0,0,0,0,0,0,0,0,0,-1.2425,-1.2427,-1.2511,-1.2512,-1.2513,-1.256,-1.2561,-1.2561,-1.2569,-1.2568,-1.2568,-1.2567,-1.2615,-1.2617,-1.2619,0,0,0,0,0,0,0,0,0,0,0,0,0,-1.2467,-1.2427,-1.2511,-1.2522,-1.2524,-1.256,-1.2561,-1.2561,-1.2569,-1.2568,-1.2568,-1.2567,-1.2614,-1.2617,-1.2619,-1.2647,0,0,-1.2627,-1.2628,0,0,0,0,0,0,0,0,-1.2465,-1.247,-1.252,-1.2522,-1.2523,-1.2558,-1.2548,-1.259,-1.2569,-1.2552,-1.2568,-1.2567,-1.2597,-1.2601,-1.2611,-1.265,-1.2652,-1.2627,-1.2629,-1.263,-1.2631,0,0,0,0,0,0,0,-1.2462,-1.2468,-1.2531,-1.2521,-1.2523,-1.2525,-1.253,-1.2556,-1.2577,-1.2553,-1.2554,-1.256,-1.2598,-1.2609,-1.2612,-1.2652,-1.2627,-1.2629,-1.2631,-1.2632,-1.2717,-1.2717,0,0,0,0,0,0,-1.2457,-1.2466,-1.2529,-1.2532,-1.2492,-1.2527,-1.2532,-1.2547,-1.2577,-1.2581,-1.256,-1.256,-1.2605,-1.2609,-1.2614,-1.2649,-1.263,-1.2632,-1.2634,-1.2716,-1.2717,-1.2718,0,0,0,0,0,0,-1.2455,-1.2463,-1.2527,-1.2499,-1.2507,-1.2529,-1.2545,-1.2549,-1.256,-1.2582,-1.2586,-1.2568,-1.2604,-1.2611,-1.2639,-1.265,-1.2633,-1.2636,-1.2715,-1.2716,-1.2717,-1.2718,0,0,0,0,0,0,-1.2453,-1.2462,-1.2473,-1.2499,-1.2509,-1.2552,-1.2546,-1.255,-1.2564,-1.2564,-1.259,-1.2594,-1.2604,-1.2635,-1.2642,-1.2654,-1.2638,-1.2714,-1.2716,-1.2717,-1.2717,-1.2719,-1.2721,0,0,0,0,0,-1.2449,-1.2471,-1.2473,-1.2481,-1.2523,-1.2552,-1.2558,-1.257,-1.2565,-1.2576,-1.2591,-1.2593,-1.2649,-1.2638,-1.2645,-1.2658,-1.2713,-1.2715,-1.2717,-1.2716,-1.2719,-1.2721,0,0,0,0,0,0,-1.2444,-1.2474,-1.2477,-1.2508,-1.2528,-1.2554,-1.2568,-1.2572,-1.2593,-1.2592,-1.2606,-1.2612,-1.264,-1.2652,-1.264,-1.2687,-1.2681,-1.2684,-1.2678,-1.268,-1.2682,-1.2678,-1.264,0,0,0,0,0,-1.2447,-1.2469,-1.2494,-1.2518,-1.2528,-1.2546,-1.2559,-1.2567,-1.2588,-1.2596,-1.2613,-1.2632,-1.2654,-1.2668,-1.2689,-1.272,-1.2725,-1.2732,-1.2734,-1.2735,-1.2737,-1.2754,-1.2757,-1.2723,-1.2723,-1.2723,0,0,-1.2452,-1.2471,-1.2484,-1.2518,-1.2534,-1.2555,-1.2553,-1.2576,-1.2592,-1.2599,-1.2627,-1.264,-1.2663,-1.2693,-1.2707,-1.2704,-1.2748,-1.2737,-1.2738,-1.274,-1.2756,-1.2759,-1.2762,-1.2724,-1.2724,-1.2724,0,0,-1.2473,-1.249,-1.2512,-1.2529,-1.2553,-1.2565,-1.2571,-1.2596,-1.2605,-1.2634,-1.264,-1.2659,-1.2697,-1.2713,-1.2726,-1.2753,-1.2756,-1.276,-1.2769,-1.2785,-1.2788,-1.279,-1.28,-1.2803,-1.2762,-1.2762,-1.2762,0,-1.2476,-1.2509,-1.2523,-1.2546,-1.256,-1.2569,-1.2591,-1.2607,-1.2637,-1.2646,-1.2643,-1.2691,-1.2706,-1.274,-1.2747,-1.2757,-1.2763,-1.2756,-1.2786,-1.2789,-1.2792,-1.2801,-1.2804,-1.2763,-1.2763,-1.2762,-1.2762,0,-1.2512,-1.2535,-1.255,-1.258,-1.2596,-1.2619,-1.2635,-1.265,-1.2657,-1.267,-1.2699,-1.2718,-1.2744,-1.2753,-1.2759,-1.2787,-1.2784,-1.2784,-1.2777,-1.2795,-1.2804,-1.2807,-1.2763,-1.2763,-1.2763,-1.2763,0,0,-1.253,-1.2567,-1.2572,-1.2586,-1.2614,-1.2632,-1.2655,-1.2681,-1.2693,-1.2714,-1.2733,-1.2765,-1.2765,-1.278,-1.2788,-1.2803,-1.2823,-1.28,-1.2801,-1.2803,-1.2854,-1.2854,-1.2858,-1.2825,-1.2826,-1.2827,-1.2852,0,-1.2553,-1.2595,-1.2608,-1.2643,-1.2664,-1.2673,-1.2693,-1.2712,-1.2725,-1.2745,-1.2758,-1.2781,-1.2779,-1.2788,-1.2803,-1.2817,-1.2833,-1.2816,-1.2843,-1.2844,-1.2836,-1.2863,-1.2862,-1.2885,-1.2856,-1.2856,-1.2857,0,-1.2586,-1.2608,-1.2645,-1.2671,-1.268,-1.2698,-1.2722,-1.2741,-1.2764,-1.2772,-1.2789,-1.2796,-1.282,-1.2813,-1.2847,-1.2835,-1.2847,-1.2856,-1.2857,-1.2859,-1.2851,-1.2865,-1.2893,-1.2896,-1.2862,-1.2862,-1.2862,0,-1.2595,-1.2633,-1.266,-1.2672,-1.2703,-1.2715,-1.2728,-1.275,-1.2765,-1.2786,-1.2796,-1.282,-1.2832,-1.2851,-1.2864,-1.2858,-1.2896,-1.2891,-1.2903,-1.2903,-1.291,-1.2909,-1.294,-1.2919,-1.2919,-1.2919,-1.2919,0,-1.2619,-1.2641,-1.2665,-1.2681,-1.2706,-1.2722,-1.2746,-1.276,-1.2779,-1.2798,-1.2807,-1.2825,-1.2842,-1.2862,-1.2873,-1.2899,-1.2905,-1.2912,-1.2914,-1.2911,-1.291,-1.2918,-1.2916,-1.292,-1.292,-1.292,-1.292,0,-1.2632,-1.2649,-1.2679,-1.2706,-1.2714,-1.2731,-1.2754,-1.277,-1.2784,-1.2808,-1.2814,-1.2835,-1.2859,-1.2875,-1.2905,-1.2913,-1.2941,-1.2943,-1.2933,-1.2934,-1.2946,-1.2944,-1.2982,-1.2988,-1.2964,-1.2964,-1.2964,0,-1.2646,-1.2664,-1.2693,-1.2707,-1.272,-1.2742,-1.2757,-1.2773,-1.2788,-1.2815,-1.2828,-1.2853,-1.2874,-1.2912,-1.2929,-1.2953,-1.2955,-1.2967,-1.2959,-1.2955,-1.2955,-1.2953,-1.2955,-1.2968,-1.2968,-1.2968,-1.2969,0,-1.2669,-1.2677,-1.2698,-1.2723,-1.2741,-1.2761,-1.2781,-1.2792,-1.2811,-1.2828,-1.2853,-1.2869,-1.2901,-1.2925,-1.2951,-1.2964,-1.2969,-1.2971,-1.2975,-1.2971,-1.2965,-1.2968,-1.2936,-1.297,-1.297,-1.297,-1.297,-1.297,-1.2683,-1.2699,-1.2722,-1.2746,-1.2763,-1.2781,-1.2798,-1.2814,-1.2835,-1.2862,-1.2871,-1.2897,-1.2919,-1.2953,-1.2967,-1.2987,-1.2986,-1.2992,-1.2993,-1.2994,-1.2994,-1.2962,-1.2992,-1.2992,-1.2992,-1.2992,-1.2992,0,-1.2706,-1.2721,-1.2743,-1.2771,-1.279,-1.2795,-1.2817,-1.2833,-1.2855,-1.2876,-1.2896,-1.2925,-1.2949,-1.2969,-1.2993,-1.3005,-1.3009,-1.3011,-1.301,-1.3013,-1.2994,-1.2988,-1.3008,-1.3008,-1.3008,-1.3008,-1.3008,-1.3008,-1.272,-1.2747,-1.2757,-1.2793,-1.2808,-1.2834,-1.2846,-1.2864,-1.288,-1.2912,-1.2932,-1.2945,-1.2965,-1.2991,-1.3013,-1.3018,-1.3027,-1.3029,-1.3034,-1.3016,-1.3014,-1.3013,-1.3007,-1.3031,-1.3031,-1.3051,-1.3052,-1.3052]},{"header":{"parameterUnit":"m.s-1","parameterCategory":1,"la1":30.2991,"la2":30.254,"lo1":-89.0895,"lo2":-89.0444,"dy":0.0017,"dx":0.0017,"nx":28,"ny":28,"refTime":"2024-04-22T21:00:00:Z","depth":0,"parameterNumber":3,"parameterNumberName":"V-component_of_WINDS"},"data":[0,0,0,0,0,0,0,0,0,0,0,0,0,0,0,0,0,0,0,0,0,0,0,0,0,0,0,0,0,0,0,0,0,0,0,0,0,0,0,0,0,0,0,0,0,0,0,0,0,0,0,0,0,0,0,0,0,0,3.6682,3.6681,0,3.6599,3.6598,3.6597,3.6525,3.6524,3.6523,3.6522,3.6435,3.6433,3.6432,0,0,0,0,0,0,0,0,0,0,0,0,0,3.6776,3.6775,3.6682,3.6681,3.668,3.6599,3.6598,3.6597,3.6525,3.6524,3.6523,3.6522,3.6435,3.6433,3.6431,0,0,0,0,0,0,0,0,0,0,0,0,0,3.6718,3.6774,3.6682,3.6634,3.6629,3.6599,3.6598,3.6596,3.6525,3.6524,3.6522,3.6521,3.6436,3.6433,3.6431,3.6441,0,0,3.6424,3.6423,0,0,0,0,0,0,0,0,3.6722,3.6715,3.6642,3.6638,3.6632,3.6571,3.6599,3.6544,3.6525,3.6564,3.6522,3.6521,3.6481,3.6475,3.6462,3.6437,3.6433,3.6424,3.6422,3.6421,3.6421,0,0,0,0,0,0,0,3.6726,3.6718,3.6649,3.6641,3.6635,3.6616,3.6607,3.6588,3.653,3.6561,3.6555,3.6547,3.6478,3.6464,3.6459,3.6432,3.6424,3.6422,3.642,3.6419,3.641,3.6411,0,0,0,0,0,0,3.6737,3.6722,3.6652,3.6646,3.6675,3.6616,3.6605,3.6592,3.653,3.652,3.6548,3.6544,3.6469,3.6462,3.6456,3.6462,3.6421,3.6419,3.6418,3.6409,3.6411,3.6412,0,0,0,0,0,0,3.674,3.6732,3.6655,3.6683,3.6671,3.6615,3.6601,3.6591,3.6577,3.6521,3.651,3.6545,3.6467,3.6459,3.6445,3.6458,3.6418,3.6416,3.6408,3.641,3.6411,3.6477,0,0,0,0,0,0,3.6743,3.6733,3.6737,3.6683,3.667,3.6647,3.6602,3.659,3.6573,3.6567,3.6515,3.6505,3.6466,3.6449,3.6443,3.6454,3.6414,3.6406,3.6409,3.6411,3.6473,3.6481,3.6487,0,0,0,0,0,3.6746,3.6758,3.6738,3.6729,3.6674,3.6648,3.664,3.6596,3.6575,3.6578,3.6541,3.6507,3.6458,3.6448,3.6441,3.6452,3.6405,3.6408,3.641,3.647,3.6479,3.6487,0,0,0,0,0,0,3.6814,3.6751,3.6727,3.6722,3.6691,3.6636,3.6638,3.6607,3.658,3.6575,3.6521,3.6509,3.6501,3.6475,3.6465,3.6458,3.6427,3.6428,3.6475,3.6483,3.649,3.6496,3.6412,0,0,0,0,0,3.6829,3.6814,3.6759,3.676,3.6745,3.6695,3.6681,3.665,3.6615,3.6601,3.6564,3.6531,3.6508,3.6494,3.647,3.6469,3.6456,3.6473,3.648,3.6486,3.6487,3.6484,3.649,3.642,3.642,3.642,0,0,3.6858,3.6822,3.6815,3.6772,3.6745,3.6729,3.6684,3.667,3.6657,3.6599,3.6583,3.6555,3.6515,3.6507,3.6502,3.6485,3.6504,3.6489,3.6495,3.6492,3.6487,3.6494,3.65,3.6422,3.6422,3.6422,0,0,3.6904,3.6876,3.6873,3.6846,3.6805,3.6771,3.6771,3.672,3.6699,3.6683,3.6639,3.6623,3.6585,3.6558,3.6539,3.6575,3.6542,3.6569,3.6604,3.6602,3.6607,3.6612,3.6623,3.6628,3.6571,3.6571,3.6571,0,3.6946,3.6922,3.6875,3.6864,3.6845,3.6793,3.6789,3.6765,3.6718,3.6707,3.6689,3.664,3.6609,3.6594,3.6603,3.659,3.6586,3.6574,3.661,3.6614,3.6618,3.6628,3.6633,3.6574,3.6574,3.6574,3.6573,0,3.6974,3.6958,3.6961,3.6918,3.69,3.6892,3.6844,3.6831,3.6802,3.677,3.6753,3.6715,3.6681,3.6676,3.6646,3.6656,3.6647,3.6621,3.6588,3.6629,3.6638,3.6642,3.6579,3.6578,3.6577,3.6576,0,0,3.706,3.6991,3.6993,3.6972,3.6923,3.6909,3.6899,3.6867,3.6857,3.6827,3.6816,3.6785,3.676,3.6739,3.6706,3.6704,3.6734,3.6677,3.6676,3.6688,3.6741,3.6761,3.6766,3.6712,3.6713,3.6713,3.6744,0,3.7097,3.7076,3.7034,3.7026,3.701,3.696,3.6951,3.692,3.6889,3.6871,3.6837,3.6816,3.6785,3.6772,3.6767,3.6731,3.6743,3.6728,3.67,3.67,3.6711,3.6771,3.6792,3.6823,3.6748,3.6748,3.6749,0,3.7137,3.711,3.7101,3.7052,3.7044,3.7037,3.7004,3.6987,3.695,3.6928,3.6905,3.6869,3.6854,3.6826,3.6805,3.6795,3.6781,3.6762,3.6762,3.6757,3.6726,3.6766,3.6832,3.6837,3.6754,3.6753,3.6753,0,3.7199,3.716,3.715,3.7134,3.7077,3.7073,3.7049,3.7011,3.6994,3.6966,3.6954,3.6924,3.6908,3.6885,3.6841,3.6825,3.6824,3.6793,3.6805,3.6806,3.6806,3.6806,3.687,3.6799,3.6799,3.6799,3.6799,0,3.7244,3.724,3.7177,3.717,3.7164,3.7115,3.711,3.7082,3.7048,3.7034,3.6989,3.6977,3.6921,3.6902,3.6868,3.6855,3.6848,3.6829,3.682,3.6833,3.6835,3.6822,3.6818,3.68,3.68,3.68,3.68,0,3.7312,3.7269,3.7254,3.7202,3.7189,3.7187,3.7141,3.7133,3.71,3.7083,3.7076,3.7025,3.7,3.6955,3.6917,3.6894,3.6888,3.6873,3.6901,3.6895,3.691,3.6909,3.6965,3.697,3.6899,3.6899,3.69,0,3.7343,3.7339,3.7286,3.7274,3.7252,3.7233,3.7216,3.7168,3.7152,3.711,3.7106,3.7078,3.7053,3.7016,3.6975,3.6945,3.6928,3.695,3.6924,3.6936,3.6927,3.6928,3.6927,3.6956,3.6957,3.6958,3.6959,0,3.7402,3.7381,3.7359,3.7329,3.7311,3.7285,3.7257,3.7249,3.7195,3.7179,3.7154,3.7134,3.7096,3.7068,3.7033,3.7008,3.6974,3.6968,3.6969,3.6981,3.6997,3.6988,3.6916,3.6966,3.6966,3.6965,3.6965,3.6964,3.7451,3.7445,3.7407,3.7384,3.7358,3.7333,3.7322,3.7288,3.7266,3.7232,3.7205,3.7181,3.7143,3.7093,3.7069,3.705,3.7034,3.7036,3.7036,3.7037,3.7042,3.7002,3.7043,3.7043,3.7043,3.7043,3.7042,0,3.7507,3.7481,3.746,3.7422,3.7403,3.7374,3.7342,3.7328,3.7308,3.7276,3.7252,3.7223,3.7196,3.7153,3.7122,3.7115,3.7098,3.7108,3.7108,3.7102,3.7058,3.706,3.7122,3.7122,3.7122,3.7122,3.7122,3.7122,3.7534,3.7522,3.7497,3.7471,3.7444,3.7421,3.7405,3.7381,3.7355,3.7324,3.7302,3.7274,3.7238,3.7204,3.7178,3.7165,3.7156,3.717,3.7153,3.7113,3.7105,3.7098,3.7099,3.7169,3.7169,3.7199,3.7199,3.7199]}]]